K5SVV Weather Reports


Display with metric or nautical units.
time (UTC)temp
F
wind
direction
speed
MPH
gust
MPH
rain 1hr
in
rain 24hr
in
rain mn
in
humidity
%
barometer
mb
20260508193430 70 192 4.0 4.0 0.00 0.00 0.00 78 1010.5
20260508192926 69 194 0.0 0.0 0.00 0.00 0.00 79 1010.6
20260508192423 69 194 0.0 0.0 0.00 0.00 0.00 78 1010.6
20260508191920 70 201 0.0 0.0 0.00 0.00 0.00 78 1010.7
20260508191418 69 147 0.0 0.0 0.00 0.00 0.00 78 1010.6
20260508190914 69 158 0.0 0.0 0.00 0.00 0.00 78 1010.8
20260508190411 69 189 0.0 0.0 0.00 0.00 0.00 78 1011.0
20260508185907 69 186 6.0 7.0 0.00 0.00 0.00 77 1011.1
20260508185405 69 199 0.0 0.0 0.00 0.00 0.00 78 1010.7
20260508184902 69 198 4.0 7.0 0.00 0.00 0.00 77 1010.9
20260508184359 69 181 2.0 3.0 0.00 0.00 0.00 76 1011.2
20260508183856 70 195 0.0 0.0 0.00 0.00 0.00 77 1011.5
20260508183352 69 159 0.0 0.0 0.00 0.00 0.00 77 1011.3
20260508182848 69 169 3.0 4.0 0.00 0.00 0.00 77 1011.3
20260508182345 69 196 0.0 0.0 0.00 0.00 0.00 77 1011.9
20260508181840 69 189 0.0 0.0 0.00 0.00 0.00 76 1011.7
20260508181337 69 178 0.0 0.0 0.00 0.00 0.00 76 1011.8
20260508180834 70 188 1.0 3.0 0.00 0.00 0.00 75 1011.6
20260508180331 70 185 0.0 0.0 0.00 0.00 0.00 74 1011.8
20260508175827 70 163 0.0 0.0 0.00 0.00 0.00 76 1011.7
20260508175324 70 187 0.0 0.0 0.00 0.00 0.00 75 1011.6
20260508174823 70 141 3.0 6.0 0.00 0.00 0.00 74 1011.6
20260508174319 70 137 1.0 3.0 0.00 0.00 0.00 74 1011.9
20260508173816 70 170 0.0 0.0 0.00 0.00 0.00 74 1011.7
20260508173313 70 78 0.0 0.0 0.00 0.00 0.00 74 1011.9
20260508172809 69 173 0.0 0.0 0.00 0.00 0.00 75 1011.9
20260508172307 69 168 0.0 0.0 0.00 0.00 0.00 75 1012.2
20260508171802 69 102 4.0 8.0 0.00 0.00 0.00 74 1012.1
20260508171258 69 188 5.0 7.0 0.00 0.00 0.00 74 1012.2
20260508170755 70 151 0.0 0.0 0.00 0.00 0.00 75 1012.1
20260508170254 69 164 1.0 2.0 0.00 0.00 0.00 76 1012.1
20260508165750 69 148 4.0 6.0 0.00 0.00 0.00 75 1012.3
20260508165248 69 138 6.0 8.0 0.00 0.00 0.00 75 1012.4
20260508164743 70 204 0.0 0.0 0.00 0.00 0.00 74 1012.6
20260508164240 71 156 0.0 1.0 0.00 0.00 0.00 73 1012.3
20260508163738 71 167 1.0 2.0 0.00 0.00 0.00 73 1012.5
20260508163236 70 182 0.0 0.0 0.00 0.00 0.00 75 1012.7
20260508162731 70 184 0.0 0.0 0.00 0.00 0.00 74 1012.7
20260508162228 69 110 0.0 0.0 0.00 0.00 0.00 74 1012.6
20260508161725 68 100 0.0 1.0 0.00 0.00 0.00 76 1012.8
20260508161222 68 164 1.0 2.0 0.00 0.00 0.00 77 1012.9
20260508160721 67 188 0.0 0.0 0.00 0.00 0.00 77 1013.3
20260508160219 68 188 0.0 0.0 0.00 0.00 0.00 77 1013.6
20260508155715 68 168 0.0 0.0 0.00 0.00 0.00 77 1013.4
20260508155212 67 180 0.0 0.0 0.00 0.00 0.00 78 1013.4
20260508154709 67 190 0.0 0.0 0.00 0.00 0.00 77 1013.4
20260508154206 66 156 0.0 0.0 0.00 0.00 0.00 78 1013.6
20260508153702 66 176 0.0 0.0 0.00 0.00 0.00 79 1013.6
20260508153200 65 176 0.0 0.0 0.00 0.00 0.00 79 1013.7
20260508152656 65 200 0.0 0.0 0.00 0.00 0.00 79 1013.7
20260508152152 65 217 0.0 0.0 0.00 0.00 0.00 79 1013.6
20260508151648 65 221 1.0 2.0 0.00 0.00 0.00 79 1013.8
20260508151145 65 135 0.0 0.0 0.00 0.00 0.00 80 1013.7
20260508150642 65 135 0.0 0.0 0.00 0.00 0.00 80 1013.8
20260508150139 65 135 1.0 1.0 0.00 0.00 0.00 80 1013.4
20260508145635 65 135 2.0 3.0 0.00 0.00 0.00 79 1013.6
20260508145131 65 135 0.0 0.0 0.00 0.00 0.00 80 1013.7
20260508144629 65 135 0.0 0.0 0.00 0.00 0.00 80 1013.6
20260508144126 65 135 0.0 0.0 0.00 0.00 0.00 80 1013.7
20260508143624 65 135 2.0 3.0 0.00 0.00 0.00 80 1013.7
20260508143120 65 135 0.0 0.0 0.00 0.00 0.00 80 1013.7
20260508142617 65 135 0.0 0.0 0.00 0.00 0.00 80 1013.6
20260508142114 65 135 0.0 0.0 0.00 0.00 0.00 80 1013.5
20260508141610 65 135 0.0 0.0 0.00 0.00 0.00 80 1013.5
20260508141108 65 135 0.0 0.0 0.00 0.00 0.00 81 1013.5
20260508140605 64 136 0.0 0.0 0.00 0.00 0.00 81 1013.6
20260508140101 64 135 0.0 0.0 0.00 0.00 0.00 82 1013.4
20260508135551 64 136 0.0 0.0 0.00 0.00 0.00 81 1013.7
20260508135048 64 135 0.0 0.0 0.00 0.00 0.00 81 1013.5
20260508134544 64 135 0.0 0.0 0.00 0.00 0.00 80 1013.8
20260508134042 64 135 0.0 0.0 0.00 0.00 0.00 80 1014.0
20260508133538 64 135 0.0 0.0 0.00 0.00 0.00 81 1013.6
20260508133036 64 135 0.0 0.0 0.00 0.00 0.00 80 1013.9
20260508132533 64 135 0.0 0.0 0.00 0.00 0.00 81 1013.7
20260508132030 64 135 0.0 0.0 0.00 0.00 0.00 81 1014.1
20260508131525 64 135 0.0 0.0 0.00 0.00 0.00 82 1013.9
20260508131022 63 135 0.0 0.0 0.00 0.00 0.00 83 1014.2
20260508130520 63 195 0.0 0.0 0.00 0.00 0.00 85 1014.0
20260508130015 61 230 0.0 0.0 0.00 0.00 0.00 87 1013.9
20260508125510 60 317 0.0 0.0 0.00 0.00 0.00 88 1013.8
20260508125003 59 237 0.0 0.0 0.00 0.00 0.00 90 1013.6
20260508124501 59 260 0.0 0.0 0.00 0.00 0.00 91 1013.8
20260508123958 59 245 0.0 0.0 0.00 0.00 0.00 91 1014.0
20260508123457 59 244 0.0 0.0 0.00 0.00 0.00 92 1014.2
20260508122952 58 244 0.0 0.0 0.00 0.00 0.00 92 1014.1
20260508122450 58 243 0.0 0.0 0.00 0.00 0.00 92 1013.8
20260508121947 58 244 0.0 0.0 0.00 0.00 0.00 92 1013.4
20260508121445 57 244 0.0 0.0 0.00 0.00 0.00 92 1013.7
20260508120943 57 247 0.0 0.0 0.00 0.00 0.00 92 1013.4
20260508120440 57 206 0.0 0.0 0.00 0.00 0.00 92 1013.4
20260508115938 57 205 0.0 0.0 0.00 0.00 0.00 92 1013.5
20260508115435 57 204 0.0 1.0 0.00 0.00 0.00 92 1013.5
20260508114931 57 197 0.0 0.0 0.00 0.00 0.00 92 1013.4
20260508114428 57 197 0.0 0.0 0.00 0.00 0.00 91 1013.7
20260508113925 57 197 0.0 0.0 0.00 0.00 0.00 91 1013.8
20260508113423 57 188 0.0 0.0 0.00 0.00 0.00 91 1013.7
20260508112920 58 188 0.0 0.0 0.00 0.00 0.00 91 1013.5
20260508112417 58 180 0.0 0.0 0.00 0.00 0.00 91 1013.4
20260508111913 57 176 0.0 0.0 0.00 0.00 0.00 91 1013.5
20260508111410 57 186 0.0 0.0 0.00 0.00 0.00 92 1013.6
20260508110907 57 188 0.0 0.0 0.00 0.00 0.00 92 1013.7
20260508110405 57 181 0.0 0.0 0.00 0.00 0.00 93 1014.0
20260508105904 57 193 0.0 0.0 0.00 0.00 0.00 94 1013.7
20260508105400 57 203 0.0 0.0 0.00 0.00 0.00 94 1013.8
20260508104858 57 193 0.0 0.0 0.00 0.00 0.00 94 1013.6
20260508104355 56 197 0.0 0.0 0.00 0.00 0.00 95 1013.8
20260508103852 56 188 0.0 0.0 0.00 0.00 0.00 95 1013.5
20260508103349 56 195 0.0 0.0 0.00 0.00 0.00 95 1013.6
20260508102846 57 188 0.0 0.0 0.00 0.00 0.00 95 1013.6
20260508102344 57 195 0.0 0.0 0.00 0.00 0.00 95 1013.6
20260508101841 57 196 0.0 0.0 0.00 0.00 0.00 94 1013.8
20260508101338 57 197 0.0 0.0 0.00 0.00 0.00 94 1013.6
20260508100836 57 197 0.0 0.0 0.00 0.00 0.00 94 1013.7
20260508100335 57 197 0.0 0.0 0.00 0.00 0.00 94 1013.4
20260508095830 57 197 0.0 0.0 0.00 0.00 0.00 94 1013.1
20260508095328 57 197 0.0 0.0 0.00 0.00 0.00 94 1013.1
20260508094824 57 197 0.0 0.0 0.00 0.00 0.00 94 1013.3
20260508094322 57 197 0.0 0.0 0.00 0.00 0.00 94 1013.3
20260508093818 57 198 0.0 0.0 0.00 0.00 0.00 94 1013.6
20260508093316 58 198 0.0 0.0 0.00 0.00 0.00 94 1013.6
20260508092813 58 197 0.0 0.0 0.00 0.00 0.00 94 1013.5
20260508092313 58 205 0.0 0.0 0.00 0.00 0.00 94 1013.8
20260508091809 58 209 0.0 0.0 0.00 0.00 0.00 94 1013.7
20260508091305 58 254 0.0 0.0 0.00 0.00 0.00 94 1013.6
20260508090803 58 254 0.0 0.0 0.00 0.00 0.00 94 1013.3
20260508090301 58 254 0.0 0.0 0.00 0.00 0.00 94 1013.5
20260508085757 58 254 0.0 0.0 0.00 0.00 0.00 94 1013.6
20260508085254 58 254 0.0 0.0 0.00 0.00 0.00 94 1013.3
20260508084749 58 255 0.0 0.0 0.00 0.00 0.00 94 1013.5
20260508084247 58 255 0.0 0.0 0.00 0.00 0.00 94 1013.7
20260508083745 58 255 0.0 0.0 0.00 0.00 0.00 94 1013.6
20260508083243 58 255 0.0 0.0 0.00 0.00 0.00 94 1013.5
20260508082742 59 255 0.0 0.0 0.00 0.00 0.00 94 1013.9
20260508082241 59 255 0.0 0.0 0.00 0.00 0.00 94 1013.9
20260508081737 59 255 0.0 0.0 0.00 0.00 0.00 94 1014.0
20260508081234 58 255 0.0 0.0 0.00 0.00 0.00 94 1014.2
20260508080731 58 255 0.0 0.0 0.00 0.00 0.00 94 1014.4
20260508080229 58 255 0.0 0.0 0.00 0.00 0.00 94 1014.6
20260508075725 58 255 0.0 0.0 0.00 0.00 0.00 94 1014.6
20260508075222 58 255 0.0 0.0 0.00 0.00 0.00 94 1014.9
20260508074720 58 247 0.0 0.0 0.00 0.00 0.00 94 1014.8
20260508074218 58 241 0.0 0.0 0.00 0.00 0.00 94 1014.8
20260508073714 58 241 0.0 0.0 0.00 0.00 0.00 94 1014.5
20260508073213 57 241 0.0 1.0 0.00 0.00 0.00 94 1014.5
20260508072708 57 198 0.0 0.0 0.00 0.00 0.00 94 1014.2
20260508072205 57 198 0.0 0.0 0.00 0.00 0.00 94 1014.0
20260508071702 57 198 0.0 0.0 0.00 0.00 0.00 94 1014.1
20260508071201 57 198 0.0 0.0 0.00 0.00 0.00 93 1013.9
20260508070658 57 198 0.0 0.0 0.00 0.00 0.00 93 1013.9
20260508070156 57 198 0.0 0.0 0.00 0.00 0.00 93 1014.1
20260508065653 57 198 0.0 0.0 0.00 0.00 0.00 93 1014.4
20260508065151 57 198 0.0 0.0 0.00 0.00 0.00 93 1014.2
20260508064648 57 198 0.0 0.0 0.00 0.00 0.00 93 1014.5
20260508064146 57 198 0.0 0.0 0.00 0.00 0.00 92 1014.2
20260508063643 57 198 0.0 0.0 0.00 0.00 0.00 92 1014.5
20260508063141 57 198 0.0 0.0 0.00 0.00 0.00 92 1014.7
20260508062639 57 198 0.0 0.0 0.00 0.00 0.00 92 1014.7
20260508062135 58 198 0.0 0.0 0.00 0.00 0.00 91 1014.8
20260508061632 58 198 0.0 0.0 0.00 0.00 0.00 91 1014.9
20260508061130 58 198 0.0 0.0 0.00 0.00 0.00 91 1015.0
20260508060626 58 198 0.0 0.0 0.00 0.00 0.00 91 1015.2
20260508060124 59 198 0.0 0.0 0.00 0.00 0.00 91 1015.0
20260508055619 59 198 0.0 0.0 0.00 0.00 0.00 91 1015.3
20260508055116 59 198 0.0 0.0 0.00 0.00 0.00 91 1015.2
20260508054613 59 198 0.0 0.0 0.00 0.00 0.00 91 1015.2
20260508054110 59 198 0.0 0.0 0.00 0.00 0.00 91 1015.1
20260508053607 59 198 0.0 0.0 0.00 0.00 0.00 91 1014.9
20260508053105 59 198 0.0 0.0 0.00 0.00 0.00 91 1015.1
20260508052602 59 198 0.0 0.0 0.00 0.00 0.00 91 1015.3
20260508052059 59 198 0.0 0.0 0.00 0.00 0.00 91 1015.3
20260508051555 59 198 0.0 0.0 0.00 0.00 0.00 91 1015.4
20260508051051 59 198 0.0 0.0 0.00 0.00 0.00 91 1015.0
20260508050547 59 198 0.0 0.0 0.00 0.00 0.00 91 1015.2
20260508050045 59 198 0.0 0.0 0.00 0.00 0.00 90 1015.2
20260508045540 59 198 0.0 0.0 0.00 0.00 0.00 90 1015.1
20260508045038 59 198 0.0 0.0 0.00 0.00 0.00 90 1014.9
20260508044535 59 198 0.0 0.0 0.00 0.00 0.00 90 1015.1
20260508044031 59 198 0.0 0.0 0.00 0.00 0.00 91 1015.2
20260508043528 59 198 0.0 0.0 0.00 0.00 0.00 90 1015.0
20260508043026 59 198 0.0 0.0 0.00 0.00 0.00 90 1015.2
20260508042522 59 198 0.0 0.0 0.00 0.00 0.00 90 1015.1
20260508042020 59 198 0.0 0.0 0.00 0.00 0.00 90 1015.0
20260508041516 59 198 0.0 0.0 0.00 0.00 0.00 90 1015.1
20260508041012 59 198 0.0 0.0 0.00 0.00 0.00 90 1014.9
20260508040510 60 198 0.0 0.0 0.00 0.00 0.00 90 1015.3
20260508040007 60 198 0.0 0.0 0.00 0.00 0.00 89 1015.0
20260508035504 60 198 0.0 0.0 0.00 0.00 0.00 89 1015.1
20260508035000 60 198 0.0 0.0 0.00 0.00 0.00 89 1014.9
20260508034458 60 198 0.0 0.0 0.00 0.00 0.00 90 1015.0
20260508033954 60 198 0.0 0.0 0.00 0.00 0.00 89 1014.9
20260508033452 60 198 0.0 0.0 0.00 0.00 0.00 89 1014.8
20260508032950 60 198 0.0 0.0 0.00 0.00 0.00 89 1014.6
20260508032447 60 198 0.0 0.0 0.00 0.00 0.00 89 1014.2
20260508031944 60 198 0.0 0.0 0.00 0.00 0.00 89 1014.4
20260508031441 60 198 0.0 0.0 0.00 0.00 0.00 89 1014.6
20260508030937 60 198 0.0 0.0 0.00 0.00 0.00 88 1014.6
20260508030434 60 198 0.0 0.0 0.00 0.00 0.00 88 1014.4
20260508025931 60 198 0.0 0.0 0.00 0.00 0.00 87 1014.2
20260508025428 60 198 0.0 0.0 0.00 0.00 0.00 87 1014.4
20260508024925 60 198 0.0 0.0 0.00 0.00 0.00 87 1014.2
20260508024421 60 198 0.0 0.0 0.00 0.00 0.00 87 1014.2
20260508023918 60 198 0.0 0.0 0.00 0.00 0.00 87 1014.0
20260508023415 60 198 0.0 0.0 0.00 0.00 0.00 86 1014.1
20260508022912 60 198 0.0 0.0 0.00 0.00 0.00 86 1014.4
20260508022407 60 198 0.0 0.0 0.00 0.00 0.00 86 1014.2
20260508021904 61 198 0.0 0.0 0.00 0.00 0.00 86 1014.2
20260508021401 61 198 0.0 0.0 0.00 0.00 0.00 86 1014.8
20260508020857 61 198 0.0 0.0 0.00 0.00 0.00 86 1014.5
20260508020355 61 198 0.0 0.0 0.00 0.00 0.00 86 1014.5
20260508015852 61 198 0.0 0.0 0.00 0.00 0.00 86 1014.6
20260508015344 61 198 0.0 0.0 0.00 0.00 0.00 86 1014.6
20260508014840 62 198 0.0 0.0 0.00 0.00 0.00 85 1014.5
20260508014337 62 198 0.0 0.0 0.00 0.00 0.00 84 1014.4
20260508013838 62 198 0.0 0.0 0.00 0.00 0.00 83 1014.0
20260508013335 62 198 0.0 0.0 0.00 0.00 0.00 83 1014.2
20260508012832 62 198 0.0 0.0 0.00 0.00 0.00 82 1014.2
20260508012329 62 198 0.0 0.0 0.00 0.00 0.00 81 1014.1
20260508011827 62 198 0.0 0.0 0.00 0.00 0.00 81 1014.0
20260508011324 63 198 0.0 0.0 0.00 0.00 0.00 80 1014.2
20260508010821 63 198 0.0 0.0 0.00 0.00 0.00 79 1013.9
20260508010319 64 198 0.0 0.0 0.00 0.00 0.00 79 1013.9
20260508005816 64 198 0.0 0.0 0.00 0.00 0.00 79 1014.2
20260508005313 64 198 0.0 0.0 0.00 0.00 0.00 78 1014.2
20260508004809 64 198 0.0 0.0 0.00 0.00 0.00 77 1014.1
20260508004305 64 198 0.0 0.0 0.00 0.00 0.00 76 1014.2
20260508003801 65 193 0.0 0.0 0.00 0.00 0.00 76 1014.4
20260508003259 65 193 0.0 0.0 0.00 0.00 0.00 76 1014.5
20260508002755 65 193 0.0 0.0 0.00 0.00 0.00 73 1014.1
20260508002252 65 193 0.0 0.0 0.00 0.00 0.00 72 1013.9
20260508001748 65 193 0.0 0.0 0.00 0.00 0.00 71 1014.2
20260508001244 65 193 0.0 0.0 0.00 0.00 0.00 71 1014.2
20260508000740 66 193 0.0 0.0 0.00 0.00 0.00 71 1014.4
20260508000238 66 193 0.0 0.0 0.00 0.00 0.00 71 1014.6
20260507235734 66 193 0.0 0.0 0.00 0.00 0.00 70 1014.7
20260507235232 66 193 0.0 0.0 0.00 0.00 0.00 71 1014.7
20260507234728 66 193 0.0 0.0 0.00 0.00 0.00 71 1014.9
20260507234225 66 160 0.0 0.0 0.00 0.00 0.00 70 1015.2
20260507233721 66 160 0.0 0.0 0.00 0.00 0.00 69 1014.7
20260507233220 66 160 0.0 0.0 0.00 0.00 0.00 69 1014.1
20260507232716 66 160 0.0 0.0 0.00 0.00 0.00 69 1014.2
20260507232214 66 160 0.0 0.0 0.00 0.00 0.00 69 1014.4
20260507231710 66 172 0.0 0.0 0.00 0.00 0.00 69 1014.2
20260507231207 67 174 0.0 0.0 0.00 0.00 0.00 69 1014.7
20260507230704 67 174 0.0 0.0 0.00 0.00 0.00 67 1014.6
20260507230201 67 174 0.0 0.0 0.00 0.00 0.00 67 1014.9
20260507225700 67 174 0.0 0.0 0.00 0.00 0.00 66 1014.9
20260507225157 67 174 0.0 0.0 0.00 0.00 0.00 66 1014.9
20260507224653 67 177 0.0 0.0 0.00 0.00 0.00 65 1014.6
20260507224150 68 177 0.0 0.0 0.00 0.00 0.00 64 1015.0
20260507223646 68 176 0.0 0.0 0.00 0.00 0.00 63 1014.9
20260507223143 68 177 0.0 0.0 0.00 0.00 0.00 63 1015.1
20260507222640 68 177 0.0 0.0 0.00 0.00 0.00 62 1015.0
20260507222136 68 177 0.0 0.0 0.00 0.00 0.00 62 1015.0
20260507221632 68 174 0.0 0.0 0.00 0.00 0.00 62 1015.0
20260507221129 68 171 0.0 0.0 0.00 0.00 0.00 62 1015.4
20260507220626 68 171 0.0 0.0 0.00 0.00 0.00 61 1015.3
20260507220124 68 172 0.0 0.0 0.00 0.00 0.00 61 1015.0
20260507215620 69 172 0.0 0.0 0.00 0.00 0.00 60 1015.1
20260507215118 69 156 0.0 0.0 0.00 0.00 0.00 61 1015.0
20260507214615 68 156 0.0 0.0 0.00 0.00 0.00 59 1015.4
20260507214111 68 125 0.0 0.0 0.00 0.00 0.00 61 1015.4
20260507213607 68 125 0.0 0.0 0.00 0.00 0.00 61 1015.0
20260507213105 68 172 0.0 0.0 0.00 0.00 0.00 60 1015.3
20260507212600 69 166 0.0 0.0 0.00 0.00 0.00 61 1015.4
20260507212057 68 174 0.0 0.0 0.00 0.00 0.00 60 1015.8
20260507211554 68 170 0.0 0.0 0.00 0.00 0.00 59 1015.6
20260507211050 69 178 0.0 0.0 0.00 0.00 0.00 61 1015.5
20260507210547 69 162 0.0 0.0 0.00 0.00 0.00 60 1016.1
20260507210044 69 172 0.0 0.0 0.00 0.00 0.00 59 1016.0
20260507205541 69 173 0.0 0.0 0.00 0.00 0.00 59 1016.1
20260507205037 69 156 0.0 0.0 0.00 0.00 0.00 62 1016.2
20260507204533 69 186 0.0 0.0 0.00 0.00 0.00 62 1016.0
20260507204031 69 169 0.0 0.0 0.00 0.00 0.00 59 1016.1
20260507203529 69 165 0.0 0.0 0.00 0.00 0.00 60 1015.8
20260507203026 69 173 0.0 1.0 0.00 0.00 0.00 60 1015.8
20260507202522 69 81 0.0 0.0 0.00 0.00 0.00 60 1015.8
20260507202018 69 83 0.0 1.0 0.00 0.00 0.00 62 1015.7
20260507201514 69 114 0.0 0.0 0.00 0.00 0.00 59 1015.7
20260507201010 69 40 1.0 2.0 0.00 0.00 0.00 61 1015.9
20260507200506 69 128 0.0 0.0 0.00 0.00 0.00 62 1015.8
20260507200002 68 54 0.0 0.0 0.00 0.00 0.00 62 1015.8
20260507195459 68 20 0.0 1.0 0.00 0.00 0.00 61 1016.1
20260507194957 68 18 1.0 2.0 0.00 0.00 0.00 60 1015.7
20260507194453 68 48 0.0 0.0 0.00 0.00 0.00 62 1016.0
20260507193949 68 17 3.0 6.0 0.00 0.00 0.00 60 1016.1